| DS18B20 | SHTC3 | ||||||
|---|---|---|---|---|---|---|---|
| ID | Date d/m/Y & Time | data1 สูง | data2 ต่ำ | data3 นอก | temp pcb | hum pcb | Time |
| 9492 | 07/04/2026 01:15:25 | 29.1  | 29.2  | 27.2  | 29.1  | 70.6  | 01:15 |
| 9491 | 07/04/2026 01:10:43 | 29.2  | 29.2  | 27.2  | 29.1  | 70.6  | 01:10 |
| 9490 | 07/04/2026 01:06:01 | 29.2  | 29.2  | 27.1  | 29.0  | 70.6  | 01:06 |
| 9489 | 07/04/2026 01:01:20 | 29.2  | 29.2  | 27.3  | 29.1  | 70.5  | 01:01 |
| 9488 | 07/04/2026 00:56:37 | 29.2  | 29.3  | 27.2  | 29.2  | 70.5  | 00:56 |
| 9487 | 07/04/2026 00:51:56 | 29.2  | 29.3  | 27.2  | 29.1  | 70.6  | 00:51 |
| 9486 | 07/04/2026 00:47:14 | 29.3  | 29.3  | 27.1  | 29.1  | 70.4  | 00:47 |
| 9485 | 07/04/2026 00:42:33 | 29.3  | 29.4  | 27.1  | 29.1  | 70.5  | 00:42 |
| 9484 | 07/04/2026 00:37:51 | 29.3  | 29.4  | 27.2  | 29.4  | 70.5  | 00:37 |
| 9483 | 07/04/2026 00:33:09 | 29.3  | 29.4  | 27.2  | 29.2  | 70.6  | 00:33 |
| 9482 | 07/04/2026 00:28:27 | 29.3  | 29.4  | 27.2  | 29.1  | 70.5  | 00:28 |
| 9481 | 07/04/2026 00:23:45 | 29.3  | 29.4  | 27.1  | 29.2  | 70.6  | 00:23 |
| 9480 | 07/04/2026 00:19:04 | 29.4  | 29.4  | 26.9  | 29.4  | 70.5  | 00:19 |
| 9479 | 07/04/2026 00:14:22 | 29.4  | 29.5  | 27.2  | 29.2  | 70.5  | 00:14 |
| 9478 | 07/04/2026 00:09:40 | 29.4  | 29.5  | 27.3  | 29.4  | 70.6  | 00:09 |
| 9477 | 07/04/2026 00:04:59 | 29.4  | 29.5  | 27.2  | 29.4  | 70.6  | 00:04 |
| 9476 | 07/04/2026 00:00:17 | 29.5  | 29.6  | 27.0  | 29.5  | 70.6  | 00:00 |
| 9475 | 06/04/2026 23:55:35 | 29.5  | 29.6  | 27.1  | 29.6  | 70.6  | 23:55 |
| 9474 | 06/04/2026 23:50:52 | 29.5  | 29.6  | 27.2  | 29.4  | 70.5  | 23:50 |
| 9473 | 06/04/2026 23:46:10 | 29.6  | 29.6  | 27.2  | 29.4  | 70.5  | 23:46 |
| 9472 | 06/04/2026 23:41:28 | 29.6  | 29.7  | 27.3  | 29.4  | 70.5  | 23:41 |
| 9471 | 06/04/2026 23:36:46 | 29.6  | 29.7  | 27.3  | 29.5  | 70.5  | 23:36 |
| 9470 | 06/04/2026 23:32:05 | 29.6  | 29.7  | 27.3  | 29.6  | 70.5  | 23:32 |
| 9469 | 06/04/2026 23:27:23 | 29.7  | 29.8  | 27.3  | 29.5  | 70.5  | 23:27 |